EDT,Max TemperatureF,Mean TemperatureF,Min TemperatureF,Max Dew PointF,MeanDew PointF,Min DewpointF,Max Humidity, Mean Humidity, Min Humidity, Max Sea Level PressureIn, Mean Sea Level PressureIn, Min Sea Level PressureIn, Max VisibilityMiles, Mean VisibilityMiles, Min VisibilityMiles, Max Wind SpeedMPH, Mean Wind SpeedMPH, Max Gust SpeedMPH,PrecipitationIn, CloudCover, Events, WindDirDegrees
2011-10-1,72,60,48,47,40,33,86,56,25,30.07,29.98,29.89,10,10,10,21,10,31,0.00,0,,321
2011-10-2,74,58,41,42,39,34,93,58,23,30.11,30.07,30.01,10,10,10,13,6,17,0.00,0,,312
2011-10-3,79,59,39,46,39,31,100,59,17,30.21,30.14,30.09,10,10,10,15,5,18,0.00,0,,310
2011-10-4,81,62,43,56,46,41,93,61,28,30.26,30.19,30.14,10,10,10,10,3,14,0.00,0,,4
2011-10-5,84,66,48,57,52,47,100,66,31,30.26,30.20,30.14,10,10,8,10,1,14,0.00,0,,30
2011-10-6,82,66,49,57,52,48,100,67,34,30.27,30.23,30.18,10,8,2,16,5,21,0.00,0,,52
2011-10-7,82,65,48,57,54,47,100,71,42,30.34,30.29,30.25,10,10,7,17,7,23,0.00,1,,66
2011-10-8,80,69,57,58,54,48,86,66,45,30.36,30.30,30.25,10,10,10,18,11,28,0.00,1,,62
2011-10-9,77,71,65,63,54,44,87,66,45,30.25,30.18,30.10,10,10,10,23,12,31,0.00,5,,59
2011-10-10,70,68,65,65,63,60,100,87,73,30.08,29.97,29.90,10,8,2,24,14,32,0.16,8,Rain,47
2011-10-11,66,64,62,64,63,61,100,97,93,29.92,29.87,29.84,10,7,2,17,10,22,0.25,8,Rain,50
2011-10-12,70,65,60,65,62,60,100,89,78,29.88,29.83,29.78,10,5,2,9,2,12,0.07,8,Rain,354
2011-10-13,79,69,58,64,62,55,100,77,54,29.81,29.75,29.67,10,8,4,33,7,41,0.16,6,Rain,254
2011-10-14,80,67,53,58,52,42,100,64,28,29.99,29.87,29.75,10,10,6,16,7,22,0.00,0,,284
2011-10-15,85,67,49,56,51,46,100,64,27,30.11,30.05,30.00,10,10,6,15,5,20,0.00,0,,281
2011-10-16,86,67,47,59,50,43,100,62,23,30.17,30.10,30.03,10,9,3,7,1,13,0.00,0,,278
2011-10-17,87,68,48,61,52,47,100,64,27,30.05,29.97,29.88,10,9,2,8,1,12,0.00,0,,215
2011-10-18,78,65,51,72,64,51,100,87,74,29.86,29.73,29.55,10,6,0,15,3,20,0.52,6,Fog-Rain,148
2011-10-19,68,58,47,68,56,40,100,80,59,29.80,29.55,29.43,10,8,2,25,9,35,0.05,7,Rain,277
2011-10-20,63,53,42,43,39,36,83,60,36,30.08,29.94,29.80,10,10,10,21,10,30,0.00,2,,274
2011-10-21,67,52,36,45,39,34,100,66,31,30.18,30.12,30.07,10,10,8,18,4,25,0.00,0,,297
2011-10-22,69,53,36,48,41,35,100,68,35,30.16,30.11,30.07,10,10,9,12,3,17,0.00,0,,25
2011-10-23,72,55,38,50,44,37,100,68,35,30.16,30.09,30.05,10,10,7,10,2,13,0.00,0,,35
2011-10-24,76,60,43,54,48,42,100,69,38,30.18,30.13,30.09,10,9,6,13,3,21,0.00,1,,304
2011-10-25,79,61,43,52,47,42,100,64,28,30.25,30.19,30.14,10,8,3,12,2,15,0.00,0,,234
2011-10-26,78,61,43,56,48,43,100,66,32,30.17,30.09,29.99,10,7,2,13,2,16,0.00,0,,227
2011-10-27,79,63,46,59,53,46,100,70,39,29.99,29.94,29.87,10,9,4,14,2,17,0.00,3,,261
2011-10-28,79,64,48,60,54,48,100,71,42,29.97,29.91,29.86,10,8,3,14,3,20,0.00,3,,265
2011-10-29,64,53,41,56,42,28,87,58,29,30.17,30.02,29.91,10,10,8,18,10,23,0.01,4,Rain,339
2011-10-30,63,47,31,39,33,26,100,63,25,30.31,30.24,30.18,10,10,7,21,4,23,0.00,0,,81
2011-10-31,66,53,39,45,41,36,100,72,43,30.25,30.20,30.14,10,10,9,14,4,17,0.00,4,,41